STARLINK-31958, 59924

Orbit data source: Space-Track

STARLINK-31958, 59924 is a payload satellite owned by SpaceX/Seattle (US) in LEO that was launched on Sat, 01 Jun 2024 UTC via an FALCON 9 launch vehicle from the Air Force Eastern Test Range (AFETR). Payload-class satellites include a variety of spacecraft equipped with specific instruments for various scientific and technological missions. These include communications satellites like Starlink; space stations such as the ISS; scientific satellites like the Hubble; Earth observation satellites from companies like Planet Labs, Umbra, and HawkEye 360; GPS; miniature CubeSats for education and research; and military/defense satellites.

Loading next visibility...
Identifier
59924, 2024-106C
Orbit
LEO
Last TLE update
16 hours ago
Origin
Manufacturer
SpaceX/Seattle
Mission
Operational spacecraft
Bus & Motor
STARLINK V2M, Unknown motor
Mass
730 kg wet, ~700 kg dry
Launch date (UTC)
2024-06-01 (11 months ago)
Launch vehicle
FALCON 9
Launch site
Air Force Eastern Test Range (AFETR)
Object type
Payload
Rocket body
Debris
Shape & HBR
Unknown
Radar Cross Section
Large (>1 m²)

Expand to show TLE details & history

TLE from 16 hours ago
0 STARLINK-31958
1 59924U 24106C   25128.63606794 -.00000206  00000-0  23405-5 0  9999
2 59924  43.0047 249.7050 0002100 276.6972  83.3646 15.40695389 53949
Epoch: 2025-05-08T15:15Z
Definitive object data (Epoch: 2025-05-08T15:15:56.27Z)
Latitude
0.00003°
Longitude
154.01686°
Altitude
443.665 km
Speed
7.648 km/s
True Right ascension
16h 38m 49s
True Declination
0° 00' 00"
Sunlit
Object was in full shadow at TLE epoch
Visualization TLE readout
Latitude
27.18581°
Longitude
-176.5578°
Altitude
444.935 km
Speed
7.649 km/s
Apparent Right ascension
22h 03m 10s
Apparent Declination
-11° 11' 17"
Sunlit
Object is in full shadow
Visualization observer readout
Local Sidereal Time
15:09:14
Azimuth
90.123° ESE
Elevation
-17.453°
Doppler factor
1
Orbital elements
Apogee altitude
447.444 km
Perigee altitude
444.578 km
Semi-major axis
6,824.148 km
Eccentricity
0.00021
Inclination
43.0047°
RAAN
249.705°
Arg. of periapsis
276.6972°
True anomaly
83.3885°
Mean anomaly
83.3646°
Eccentric anomaly
83.37655°
Mean motion
3.85009 °/min
BSTAR
0.0000023405
Orbital period
93.5 mins
Loading maneuver chart data...
Loading SW <> Apogee altitude chart data...
Loading historical data...
Loading historical data...
Loading historical data...
Loading historical data...
Loading historical data...
Loading historical data...
Loading historical data...

STARLINK-31958 Visibility forecast

Observer location: undefined°, undefined°

Span
Click to sort rows by Start time (UTC) header in descending order
Start Az.
Max El. time (UTC)
Max El. Az.
Max El.
End time (UTC)
End Az.
5 mins2025-05-09 11:44:18.616Z222.009° SW2025-05-09 11:46:18.616Z126.409° SE38.087°2025-05-09 11:49:18.616Z77.099° E
5 mins2025-05-09 13:22:18.616Z284.248° WNW2025-05-09 13:24:18.616Z13.075° NNE38.464°2025-05-09 13:27:18.616Z70.645° E
5 mins2025-05-09 15:00:18.616Z296.202° NW2025-05-09 15:02:18.616Z4.364° NNE40.46°2025-05-09 15:05:18.616Z88.99° E
5 mins2025-05-09 16:38:18.616Z271.939° WNW2025-05-09 16:40:18.616Z213.177° SW35.33°2025-05-09 16:43:18.616Z135.627° SSE
|